Location: Albany
(35.0000°S, 118.0000°E)
Time: 23:29:08
(UTC-05:00)

ADEOS Rocket - Visible Passes

Search period start: 04 December 2016 00:00
Search period end: 14 December 2016 00:00
Orbit: 858 x 1307 km, 98.7° (Epoch: 04 December)

Date Brightness Start Highest point End Pass type
(mag) Time Alt. Az. Time Alt. Az. Time Alt. Az.
04 Dec 5.1 12:43:15 10° NE 12:49:42 33° ESE 12:56:25 10° S visible
04 Dec 3.8 14:27:40 10° N 14:34:44 49° W 14:42:17 10° SSW visible
05 Dec 5.9 11:57:50 10° E 12:01:42 15° ESE 12:05:37 10° SSE visible
05 Dec 3.7 13:38:23 10° NNE 13:45:49 79° ESE 13:53:42 10° S visible
06 Dec 4.8 12:50:34 10° NE 12:57:20 37° ESE 13:04:21 10° S visible
06 Dec 4.0 14:35:34 10° NNW 14:42:32 42° W 14:49:53 10° SSW visible
07 Dec 5.8 12:04:38 10° E 12:09:15 17° ESE 12:13:55 10° SSE visible
07 Dec 3.6 13:46:01 10° NNE 13:53:33 89° ESE 14:01:28 10° SSW visible
08 Dec 4.6 12:57:57 10° NE 13:04:59 43° ESE 13:12:15 10° S visible
08 Dec 4.1 14:43:31 10° NNW 14:50:21 37° W 14:57:28 10° SSW visible
09 Dec 5.7 12:11:36 10° ENE 12:16:49 20° ESE 12:22:05 10° SSE visible
09 Dec 3.5 13:53:42 10° N 14:01:18 80° WNW 14:09:13 10° SSW visible
10 Dec 4.4 13:05:23 10° NE 13:12:39 49° ESE 13:20:06 10° S visible
10 Dec 4.3 14:51:34 10° NNW 14:58:09 32° W 15:04:59 10° SW visible
11 Dec 5.5 12:18:41 10° ENE 12:24:24 23° ESE 12:30:10 10° SSE visible
11 Dec 3.6 14:01:27 10° N 14:09:03 71° WNW 14:16:55 10° SSW visible
12 Dec 4.2 13:12:53 10° NNE 13:20:20 56° ESE 13:27:56 10° S visible
12 Dec 4.5 14:59:42 10° NNW 15:06:00 28° W 15:12:27 10° SW visible
13 Dec 5.3 12:25:52 10° ENE 12:32:01 27° ESE 12:38:10 10° S visible
13 Dec 3.6 14:09:14 10° N 14:16:49 62° W 14:24:35 10° SSW visible
